Terug naar catalogus

ONEWEB-0687

ActiefCommunicatiePO
NORAD 61595·PAYLOAD·🇬🇧 United Kingdom

Gelanceerd Oct 20, 2024 vanaf Vandenberg Space Force Base

Loading…

Volgende Passages (komende 24 uur)

TLE

VersSource: CelesTrak SupGP

Epoch: Sep 14, 2026, 13:20 UTC

1 61595C 24188B   26257.55573333  .00000660  00000+0  17023-2 0  2578
2 61595  87.9205 348.1253 0001858 117.6451 356.3804 13.17650886    17

Volg ONEWEB-0687 in realtime met AllMySat

Download on the App Store